Radiation Dose at Monitoring Post of Fukushima Daini Nuclear Power Station
Date,Time,MP-1(microSv/h),MP-2(microSv/h),MP-3(microSv/h),MP-4(microSv/h),MP-5(microSv/h),MP-6(microSv/h),MP-7(microSv/h),Wind Direction,Wind Velocity(m/s),Rain
2023/07/28,00:00,0.152,0.139,0.222,0.211,0.212,0.120,0.078,southwest,3.3,No
2023/07/28,00:10,0.151,0.139,0.222,0.211,0.211,0.121,0.077,southwest,2.7,No
2023/07/28,00:20,0.150,0.139,0.220,0.210,0.215,0.121,0.077,south-southwest,2.3,No
2023/07/28,00:30,0.153,0.140,0.220,0.209,0.216,0.120,0.077,south-southwest,2.6,No
2023/07/28,00:40,0.152,0.139,0.222,0.211,0.213,0.121,0.078,southwest,2.8,No
2023/07/28,00:50,0.151,0.138,0.222,0.210,0.213,0.122,0.078,south-southwest,2.5,No
2023/07/28,01:00,0.149,0.139,0.220,0.209,0.212,0.121,0.077,south-southwest,1.8,No
2023/07/28,01:10,0.152,0.140,0.219,0.210,0.216,0.120,0.077,south-southwest,1.8,No
2023/07/28,01:20,0.151,0.138,0.223,0.213,0.214,0.120,0.078,south,1.3,No
2023/07/28,01:30,0.150,0.137,0.222,0.209,0.213,0.120,0.078,south-southwest,1.7,No
2023/07/28,01:40,0.150,0.139,0.220,0.208,0.211,0.120,0.078,south-southwest,0.9,No
2023/07/28,01:50,0.152,0.139,0.221,0.210,0.215,0.120,0.077,west-southwest,2.0,No
2023/07/28,02:00,0.152,0.139,0.222,0.212,0.215,0.122,0.077,west-southwest,3.6,No
2023/07/28,02:10,0.151,0.139,0.222,0.209,0.213,0.120,0.078,west,3.4,No
2023/07/28,02:20,0.150,0.140,0.220,0.207,0.212,0.120,0.077,west-northwest,1.7,No
2023/07/28,02:30,0.152,0.138,0.222,0.212,0.213,0.120,0.076,west,2.2,No
2023/07/28,02:40,0.152,0.137,0.222,0.210,0.214,0.121,0.078,west-northwest,4.0,No
2023/07/28,02:50,0.151,0.139,0.221,0.210,0.213,0.120,0.077,west-northwest,4.3,No
2023/07/28,03:00,0.149,0.139,0.220,0.207,0.211,0.120,0.077,west-northwest,3.1,No
2023/07/28,03:10,0.152,0.139,0.223,0.211,0.212,0.120,0.078,northwest,1.9,No
2023/07/28,03:20,0.152,0.138,0.222,0.210,0.216,0.120,0.078,north-northwest,1.4,No
2023/07/28,03:30,0.152,0.140,0.221,0.210,0.213,0.121,0.077,-,CALM,No
2023/07/28,03:40,0.150,0.141,0.222,0.210,0.213,0.120,0.077,-,CALM,No
2023/07/28,03:50,0.153,0.139,0.222,0.211,0.212,0.121,0.078,northeast,0.7,No
2023/07/28,04:00,0.151,0.139,0.222,0.211,0.216,0.120,0.078,north-northeast,1.2,No
2023/07/28,04:10,0.151,0.140,0.220,0.209,0.215,0.120,0.077,north,1.2,No
2023/07/28,04:20,0.151,0.139,0.222,0.211,0.212,0.121,0.078,north,0.7,No
2023/07/28,04:30,0.152,0.139,0.222,0.210,0.213,0.120,0.078,north,0.9,No
2023/07/28,04:40,0.151,0.140,0.220,0.210,0.216,0.120,0.078,north,1.6,No
2023/07/28,04:50,0.150,0.139,0.223,0.210,0.215,0.120,0.078,north-northeast,1.1,No
2023/07/28,05:00,0.152,0.139,0.223,0.211,0.213,0.121,0.079,north-northeast,2.3,No
2023/07/28,05:10,0.152,0.140,0.220,0.210,0.212,0.121,0.077,north-northeast,2.0,No
2023/07/28,05:20,0.151,0.140,0.221,0.208,0.215,0.121,0.078,north-northeast,1.7,No
2023/07/28,05:30,0.149,0.138,0.222,0.211,0.214,0.122,0.079,north,1.4,No
2023/07/28,05:40,0.152,0.137,0.220,0.211,0.213,0.120,0.078,north-northwest,0.7,No
2023/07/28,05:50,0.151,0.139,0.220,0.208,0.212,0.120,0.076,north,0.7,No
2023/07/28,06:00,0.151,0.140,0.223,0.210,0.211,0.121,0.077,north,0.9,No
2023/07/28,06:10,0.150,0.139,0.222,0.212,0.211,0.120,0.077,north,1.7,No
2023/07/28,06:20,0.152,0.138,0.221,0.210,0.212,0.121,0.077,north-northeast,1.9,No
2023/07/28,06:30,0.151,0.138,0.221,0.209,0.212,0.120,0.078,north-northeast,1.1,No
2023/07/28,06:40,0.151,0.139,0.224,0.209,0.212,0.121,0.077,north-northeast,1.2,No
2023/07/28,06:50,0.151,0.139,0.222,0.208,0.213,0.122,0.077,northeast,1.0,No
2023/07/28,07:00,0.151,0.137,0.221,0.208,0.217,0.121,0.079,east-northeast,0.8,No
2023/07/28,07:10,0.151,0.139,0.220,0.207,0.215,0.120,0.078,east-northeast,0.8,No
2023/07/28,07:20,0.150,0.139,0.220,0.209,0.215,0.121,0.078,east,1.1,No
2023/07/28,07:30,0.151,0.139,0.221,0.210,0.214,0.121,0.077,-,CALM,No
2023/07/28,07:40,0.150,0.139,0.220,0.209,0.213,0.121,0.078,-,CALM,No
2023/07/28,07:50,0.151,0.139,0.221,0.209,0.213,0.120,0.078,south,0.7,No
2023/07/28,08:00,0.152,0.139,0.223,0.210,0.214,0.120,0.079,south-southeast,1.1,No
2023/07/28,08:10,0.152,0.139,0.221,0.210,0.214,0.121,0.078,east-southeast,1.0,No
2023/07/28,08:20,0.151,0.140,0.221,0.210,0.214,0.121,0.078,east-southeast,1.4,No
2023/07/28,08:30,0.153,0.139,0.222,0.212,0.214,0.121,0.078,east,1.3,No
2023/07/28,08:40,0.153,0.139,0.223,0.211,0.216,0.120,0.078,south,0.7,No
2023/07/28,08:50,0.154,0.141,0.223,0.212,0.214,0.121,0.078,east-southeast,1.0,No
2023/07/28,09:00,0.153,0.140,0.223,0.212,0.214,0.121,0.078,east-southeast,1.0,No
2023/07/28,09:10,0.153,0.139,0.223,0.212,0.214,0.121,0.078,east,0.6,No
2023/07/28,09:20,0.153,0.140,0.223,0.212,0.215,0.122,0.078,east,1.3,No
2023/07/28,09:30,0.153,0.140,0.223,0.214,0.215,0.121,0.079,east,1.6,No
2023/07/28,09:40,0.152,0.141,0.224,0.213,0.215,0.121,0.078,-,CALM,No
2023/07/28,09:50,0.153,0.141,0.223,0.215,0.216,0.122,0.078,east,0.7,No
2023/07/28,10:00,0.152,0.141,0.224,0.214,0.215,0.122,0.079,southeast,0.8,No
2023/07/28,10:10,0.153,0.140,0.223,0.213,0.216,0.121,0.078,east-southeast,1.8,No
2023/07/28,10:20,0.154,0.141,0.222,0.213,0.215,0.123,0.078,east,1.4,No
2023/07/28,10:30,0.152,0.140,0.222,0.212,0.215,0.122,0.078,east-southeast,1.7,No
2023/07/28,10:40,0.152,0.141,0.223,0.213,0.215,0.121,0.078,east-southeast,1.2,No
2023/07/28,10:50,0.153,0.141,0.223,0.214,0.214,0.121,0.079,east-southeast,1.4,No
2023/07/28,11:00,0.152,0.140,0.223,0.213,0.215,0.121,0.079,southeast,1.6,No
2023/07/28,11:10,0.153,0.140,0.222,0.213,0.214,0.122,0.078,east-southeast,1.0,No
2023/07/28,11:20,0.152,0.141,0.223,0.213,0.214,0.122,0.079,east-southeast,1.6,No
2023/07/28,11:30,0.152,0.141,0.224,0.213,0.214,0.122,0.078,southeast,0.7,No
2023/07/28,11:40,0.151,0.141,0.222,0.213,0.216,0.121,0.079,-,CALM,No
2023/07/28,11:50,0.152,0.141,0.223,0.214,0.215,0.121,0.078,south-southeast,3.0,No
2023/07/28,12:00,0.152,0.141,0.223,0.213,0.214,0.121,0.078,south-southeast,3.9,No
2023/07/28,12:10,0.151,0.139,0.222,0.212,0.214,0.120,0.078,south-southeast,4.3,No
2023/07/28,12:20,0.152,0.140,0.223,0.212,0.214,0.121,0.078,south-southeast,4.4,No
2023/07/28,12:30,0.152,0.140,0.222,0.213,0.214,0.120,0.078,south-southeast,4.4,No
2023/07/28,12:40,0.152,0.140,0.222,0.212,0.214,0.120,0.078,south-southeast,4.6,No
2023/07/28,12:50,0.151,0.140,0.223,0.212,0.213,0.120,0.077,south-southeast,5.1,No
2023/07/28,13:00,0.151,0.140,0.221,0.211,0.214,0.120,0.077,south-southeast,5.9,No
2023/07/28,13:10,0.151,0.139,0.222,0.212,0.213,0.119,0.077,south-southeast,6.4,No
2023/07/28,13:20,0.152,0.139,0.221,0.211,0.214,0.119,0.077,south-southeast,5.9,No
2023/07/28,13:30,0.152,0.138,0.221,0.212,0.213,0.120,0.077,south-southeast,6.1,No
2023/07/28,13:40,0.152,0.139,0.222,0.212,0.212,0.121,0.077,south-southeast,7.3,No
2023/07/28,13:50,0.152,0.139,0.221,0.211,0.213,0.120,0.078,south-southeast,9.0,No
2023/07/28,14:00,0.152,0.139,0.221,0.210,0.212,0.120,0.076,south-southeast,9.3,No
2023/07/28,14:10,0.151,0.139,0.222,0.211,0.213,0.120,0.077,south-southeast,9.6,No
2023/07/28,14:20,0.151,0.139,0.223,0.211,0.213,0.120,0.077,south-southeast,8.5,No
2023/07/28,14:30,0.151,0.139,0.222,0.211,0.212,0.120,0.077,south-southeast,9.8,No
2023/07/28,14:40,0.150,0.137,0.223,0.211,0.214,0.121,0.077,south-southeast,8.8,No
2023/07/28,14:50,0.151,0.138,0.222,0.211,0.215,0.121,0.077,south,9.0,No
2023/07/28,15:00,0.151,0.137,0.222,0.212,0.214,0.121,0.076,south-southeast,8.9,No
2023/07/28,15:10,0.152,0.139,0.222,0.211,0.214,0.121,0.077,south-southeast,9.8,No
2023/07/28,15:20,0.151,0.139,0.221,0.210,0.213,0.121,0.078,south,8.7,No
2023/07/28,15:30,0.151,0.138,0.221,0.212,0.213,0.120,0.076,south-southeast,7.8,No
2023/07/28,15:40,0.150,0.138,0.221,0.211,0.213,0.120,0.077,south-southeast,9.0,No
2023/07/28,15:50,0.152,0.139,0.221,0.211,0.213,0.120,0.077,south-southeast,9.0,No
2023/07/28,16:00,0.150,0.139,0.220,0.210,0.213,0.120,0.077,south,9.2,No
2023/07/28,16:10,0.149,0.138,0.221,0.210,0.212,0.121,0.077,south,8.6,No
2023/07/28,16:20,0.150,0.138,0.220,0.210,0.212,0.121,0.077,south,7.6,No
2023/07/28,16:30,0.150,0.138,0.220,0.210,0.211,0.120,0.076,south,7.9,No
2023/07/28,16:40,0.149,0.138,0.220,0.210,0.210,0.119,0.076,south,7.5,No
2023/07/28,16:50,0.149,0.138,0.221,0.209,0.211,0.119,0.076,south,6.7,No
2023/07/28,17:00,0.149,0.138,0.221,0.210,0.211,0.120,0.076,south,7.3,No
2023/07/28,17:10,0.150,0.138,0.220,0.210,0.212,0.119,0.077,south,6.8,No
2023/07/28,17:20,0.150,0.137,0.220,0.209,0.212,0.120,0.076,south,7.1,No
2023/07/28,17:30,0.150,0.138,0.220,0.209,0.213,0.121,0.076,south-southwest,5.5,No
2023/07/28,17:40,0.151,0.138,0.221,0.211,0.213,0.120,0.076,south,6.0,No
2023/07/28,17:50,0.150,0.138,0.220,0.209,0.212,0.121,0.077,south,6.0,No
2023/07/28,18:00,0.150,0.138,0.221,0.209,0.213,0.120,0.076,south,6.0,No
2023/07/28,18:10,0.150,0.138,0.221,0.210,0.212,0.120,0.077,south,5.7,No
2023/07/28,18:20,0.150,0.137,0.221,0.208,0.212,0.121,0.077,south,6.3,No
2023/07/28,18:30,0.150,0.136,0.221,0.210,0.212,0.120,0.077,south,6.1,No
2023/07/28,18:40,0.150,0.137,0.220,0.209,0.212,0.121,0.077,south,6.3,No
2023/07/28,18:50,0.150,0.138,0.221,0.210,0.212,0.120,0.076,south,5.3,No
2023/07/28,19:00,0.152,0.140,0.221,0.211,0.212,0.120,0.077,south,5.6,No
2023/07/28,19:10,0.150,0.139,0.224,0.215,0.215,0.122,0.077,south,5.0,No
2023/07/28,19:20,0.150,0.140,0.225,0.213,0.216,0.121,0.077,south,4.7,No
2023/07/28,19:30,0.150,0.138,0.222,0.212,0.214,0.121,0.076,south,4.1,No
2023/07/28,19:40,0.149,0.139,0.221,0.211,0.214,0.121,0.077,south,4.4,No
2023/07/28,19:50,0.151,0.139,0.221,0.209,0.212,0.121,0.077,south-southwest,2.5,No
2023/07/28,20:00,0.152,0.140,0.219,0.210,0.212,0.120,0.077,south-southwest,3.1,No
2023/07/28,20:10,0.151,0.139,0.226,0.213,0.212,0.121,0.077,south-southwest,3.0,No
2023/07/28,20:20,0.150,0.139,0.225,0.214,0.216,0.122,0.078,southwest,2.4,No
2023/07/28,20:30,0.150,0.138,0.222,0.211,0.216,0.121,0.078,west,1.4,No
2023/07/28,20:40,0.150,0.139,0.222,0.211,0.213,0.121,0.077,west-southwest,1.0,No
2023/07/28,20:50,0.152,0.140,0.222,0.210,0.211,0.121,0.077,west-northwest,0.7,No
2023/07/28,21:00,0.153,0.139,0.226,0.213,0.212,0.122,0.078,northwest,0.8,No
2023/07/28,21:10,0.151,0.139,0.225,0.213,0.214,0.121,0.077,northwest,0.7,No
2023/07/28,21:20,0.151,0.138,0.223,0.212,0.217,0.122,0.078,-,CALM,No
2023/07/28,21:30,0.152,0.141,0.223,0.212,0.216,0.121,0.078,northwest,1.2,No
2023/07/28,21:40,0.154,0.141,0.223,0.212,0.214,0.122,0.078,northwest,1.3,No
2023/07/28,21:50,0.152,0.141,0.226,0.215,0.214,0.122,0.078,west-northwest,0.7,No
2023/07/28,22:00,0.152,0.140,0.226,0.214,0.215,0.122,0.078,northwest,1.2,No
2023/07/28,22:10,0.151,0.140,0.222,0.212,0.216,0.121,0.079,north-northwest,0.7,No
2023/07/28,22:20,0.152,0.142,0.222,0.211,0.215,0.122,0.078,-,CALM,No
2023/07/28,22:30,0.153,0.140,0.225,0.214,0.213,0.122,0.078,-,CALM,No
2023/07/28,22:40,0.152,0.139,0.225,0.213,0.211,0.122,0.079,-,CALM,No
2023/07/28,22:50,0.151,0.140,0.223,0.212,0.215,0.121,0.078,south-southwest,1.1,No
2023/07/28,23:00,0.151,0.141,0.221,0.211,0.215,0.122,0.078,southwest,3.3,No
2023/07/28,23:10,0.154,0.139,0.225,0.211,0.214,0.122,0.078,southwest,3.4,No
2023/07/28,23:20,0.154,0.141,0.225,0.214,0.214,0.121,0.079,southwest,3.4,No
2023/07/28,23:30,0.152,0.140,0.223,0.212,0.213,0.121,0.079,south-southwest,3.5,No
2023/07/28,23:40,0.150,0.141,0.221,0.211,0.216,0.122,0.079,south-southwest,2.0,No
2023/07/28,23:50,0.153,0.140,0.226,0.212,0.216,0.122,0.079,south-southwest,2.5,No
